Weather Service Report


117 
ASUS43 KMPX 210410
RWRMN 
WEATHER ROUNDUP FOR MINNESOTA
NATIONAL WEATHER SERVICE TWIN CITIES/CHANHASSEN MN
1000 PM CST THU NOV 20 2014


NOTE: "FAIR" INDICATES FEW OR NO CLOUDS BELOW 12,000 FEET WITH NO
SIGNIFICANT WEATHER AND/OR OBSTRUCTIONS TO VISIBILITY. N/A MEANS
CURRENT SKY AND/OR WEATHER CONDITIONS ARE NOT AVAILABLE.

MNZ060>063-068>070-210500-
   Twin Cities Metro   
  
CITY           SKY/WX    TMP DP  RH WIND       PRES   REMARKS
TWIN CITIES    PTCLDY     9   2  73 CALM      30.24S                  
ST PAUL        PTCLDY    10   3  73 CALM      30.26S                  
CRYSTAL        CLEAR      7   1  76 SW3       30.23R                  
BLAINE         CLEAR      7   1  78 CALM      30.22S                  
LAKEVILLE      PTCLDY     3   0  85 CALM      30.24R                  
EDEN PRAIRIE   PTCLDY     5   1  83 SW5       30.23S WCI  -4          
SOUTH ST PAUL  PTCLDY     9   4  78 CALM      30.25R                  
LAKE ELMO      FAIR       0  -4  85 S3        30.24S                  
$$
MNZ001>005-007-008-013>017-022>024-027-028-210500-
   Northwest Minnesota   
  
CITY           SKY/WX    TMP DP  RH WIND       PRES   REMARKS
BEMIDJI        PTCLDY    -1  -5  82 CALM      30.09S                  
HALLOCK        PTCLDY    10   3  72 S12       30.03F WCI  -4          
ROSEAU         PTCLDY     1  -4  78 S8        30.05F WCI -12          
WARROAD        PTCLDY     1  -4  78 S5        30.06R WCI  -8          
THIEF RVR FALL PTCLDY     7   1  78 S8        30.06F WCI  -6          
CROOKSTON      PTCLDY    10   3  72 S14       30.09F WCI  -5          
FOSSTON        PTCLDY     3   0  85 S10       30.09S WCI -12          
DETROIT LAKES  PTCLDY     7   5  92 S5        30.11F WCI  -2          
MOORHEAD       PTCLDY    10   9  92 S10       30.12F WCI  -3          
PARK RAPIDS    MOCLDY     1  -4  79 S3        30.11R                  
MAHNOMEN       FAIR       7   2  82 S10       30.09F WCI  -8          
$$
MNZ006-009>011-018-025>026-210500-
   North Central Minnesota   
  
CITY           SKY/WX    TMP DP  RH WIND       PRES   REMARKS
BAUDETTE       MOCLDY    -1  -6  79 S5        30.06F WCI -11          
FLAG ISLAND    PTCLDY     7   1  78 SW6       30.05R WCI  -3          
INTL FALLS     PTCLDY   -11 -17  75 CALM      30.09S                  
WASKISH        MOCLDY     1  -2  85 CALM      30.09F                  
BIG FORK       MOCLDY    -9 -15  77 CALM      30.11R                  
LONGVILLE      PTCLDY    -4  -8  84 CALM      30.13S                  
GRAND RAPIDS   MOCLDY    -2  -8  78 S3        30.11R                  
CRANE LAKE     PTCLDY   -11 -15  84 CALM      30.13S                  
ORR            PTCLDY    -2  -8  78 CALM      30.07S                  
COOK           PTCLDY   -11 -17  77 CALM      30.11S                  
WALKER         FAIR       3  -4  73 CALM      30.12R                  
$$
MNZ012-019>021-037-210500-
   Northeast Minnesota   
  
CITY           SKY/WX    TMP DP  RH WIND       PRES   REMARKS
DULUTH         PTCLDY     1  -5  75 W6        30.11R WCI -10          
ELY            PTCLDY    -9 -15  77 CALM      30.10R                  
HIBBING        MOCLDY    -9 -16  71 CALM      30.11F                  
EVELETH        PTCLDY    -8 -13  77 CALM      30.12S                  
DULUTH HARBOR  PTCLDY    10   1  67 CALM      30.21R                  
TWO HARBORS    PTCLDY     3  -2  78 CALM      30.12R                  
SILVER BAY     PTCLDY     7  -2  66 CALM      30.11R                  
GRAND MARAIS     N/A     12   4  70 CALM      30.15R                  
G MARAIS ARPRT PTCLDY     1  -4  78 NW9G16    30.01R WCI -14          
$$
MNZ029>031-032-039>041-046>048-054>057-064-210500-
   West Central Minnesota   
  
CITY           SKY/WX    TMP DP  RH WIND       PRES   REMARKS
FERGUS FALLS   PTCLDY     5   0  78 S8        30.19R WCI  -8          
WHEATON        CLEAR      7   3  85 S10       30.17F WCI  -8          
MORRIS         PTCLDY     0  -6  78 SE7       30.16S WCI -13          
ALEXANDRIA     PTCLDY     4   1  88 S7        30.15S WCI  -8          
ELBOW LAKE       N/A      3   0  87 SE7       30.15S WCI -10          
WADENA         MOCLDY     0  -2  92 S5        30.13S WCI -10          
GLENWOOD       PTCLDY     1   0  92 S5        30.16F WCI  -8          
APPLETON       PTCLDY     3   0  85 S5        30.19F WCI  -6          
BENSON         PTCLDY     1   0  92 S3        30.18F                  
ORTONVILLE     CLEAR      1  -2  85 S5        30.16F WCI  -8          
MADISON        PTCLDY     3   0  85 S5        30.19F WCI  -6          
WILLMAR        FAIR       0  -6  78 CALM      30.20F                  
$$
MNZ033>034-036-042>043-049>051-058-059-210500-
   Central Minnesota     
  
CITY           SKY/WX    TMP DP  RH WIND       PRES   REMARKS
ST CLOUD       PTCLDY     1  -4  79 S5        30.20S WCI  -9          
SAUK CENTRE    FAIR       0  -3  90 CALM      30.18S                  
PAYNESVILLE    PTCLDY    -6  -8  90 CALM      30.20F                  
AITKIN         PTCLDY    -2  -8  78 CALM      30.13F                  
PINE RIVER     PTCLDY    -2  -6  84 CALM      30.17R                  
BRAINERD       PTCLDY    -5  -8  87 SW3       30.16S                  
STAPLES        PTCLDY     0  -4  85 CALM      30.14F                  
LONG PRAIRIE   FAIR      -4  -6  92 S5        30.16S WCI -15          
LITTLE FALLS   PTCLDY    -2  -6  84 CALM      30.19S                  
LITCHFIELD     PTCLDY     3   1  92 CALM      30.21S                  
BUFFALO        PTCLDY     3  -1  85 CALM      30.24R                  
MAPLE LAKE     PTCLDY     5   2  90 SW3       30.22S                  
$$
MNZ037-044-045-052-053-210500-
   East Central Minnesota   
  
CITY           SKY/WX    TMP DP  RH WIND       PRES   REMARKS
PRINCETON      FAIR      -4  -9  77 CALM      30.20S                  
MORA             N/A    N/A N/A N/A MISG        N/A                   
CAMBRIDGE      PTCLDY     0  -8  71 CALM      30.20S                  
RUSH CITY      MOCLDY    -2  -5  85 CALM      30.21S                  
MOOSE LAKE     PTCLDY    -6 -11  77 CALM      30.15F                  
HINCKLEY       FAIR      -4  -8  84 CALM      30.18F                  
CLOQUET        PTCLDY     0  -6  78 CALM      30.13S                  
MCGREGOR       MOCLDY    -2  -6  84 CALM      30.15S                  
$$
MNZ071>073-080-081-089-090-097-098-210500-
   Southwest Minnesota   
  
CITY           SKY/WX    TMP DP  RH WIND       PRES   REMARKS
MONTEVIDEO     PTCLDY     5   3  92 SW5       30.21S WCI  -4          
GRANITE FALLS  PTCLDY     2  -1  85 S7        30.22S WCI -11          
CANBY          PTCLDY     7   5  91 S8        30.19S WCI  -6          
MARSHALL       PTCLDY     5   1  85 SW9       30.19S WCI  -9          
REDWOOD FALLS  PTCLDY     2  -2  83 S8        30.23R WCI -12          
OLIVIA         PTCLDY     1  -2  85 CALM      30.21S                  
PIPESTONE      CLEAR     10   7  85 S7        30.15S WCI   0          
WINDOM           N/A      3   0  85 CALM      30.21R                  
WORTHINGTON    PTCLDY     7   7 100 S7        30.19S WCI  -5          
JACKSON        CLEAR      7   3  85 S6        30.22R WCI  -3          
TRACY          PTCLDY     8   4  83 S7        30.20S WCI  -3          
SLAYTON        PTCLDY     4   2  91 CALM      30.19R                  
$$
MNZ065>067-074>077-082>085-091>093-210500-
   South Central Minnesota  
  
CITY           SKY/WX    TMP DP  RH WIND       PRES   REMARKS
MANKATO        PTCLDY     7   1  78 SE5       30.24R WCI  -2          
NEW ULM        MOCLDY     3   1  92 CALM      30.23S                  
ST JAMES       PTCLDY     3   0  85 S6        30.25R WCI  -8          
FAIRMONT       PTCLDY     1  -2  85 SW5       30.23R WCI  -8          
GLENCOE        MOCLDY     3   0  88 CALM      30.23R                  
FARIBAULT      MOCLDY     1  -2  85 CALM      30.25R                  
OWATONNA       MOCLDY     0  -6  78 CALM      30.24R                  
WASECA         PTCLDY     1  -4  78 CALM      30.25S                  
ALBERT LEA     PTCLDY     5   1  85 SE1       30.23S                  
$$
MNZ078>079-086>088-094>096-210500-
   Southeast Minnesota   
  
CITY           SKY/WX    TMP DP  RH WIND       PRES   REMARKS
ROCHESTER      PTCLDY     3  -1  83 W6        30.23R WCI  -8          
RED WING         N/A      0  -4  85 CALM      30.26R                  
STANTON        PTCLDY     2  -2  83 S5        30.24R WCI  -7          
DODGE CENTER   PTCLDY     1   0  92 W5        30.22R WCI  -8          
WINONA         PTCLDY    10   5  79 W3        30.29R                  
AUSTIN         PTCLDY     1  -2  85 CALM      30.24R                  
PRESTON        PTCLDY     6   1  80 NW3       30.24S                  
$$
ABBREVIATIONS USED IN REMARKS
   TC - TEMPERATURES IN CELSIUS
  WCI - WIND CHILL INDEX
   HX - HEAT INDEX
  VSB - VISIBILITY 
$$

Return to Home page


Western Regional Climate Center, wrcc@dri.edu